Weather Roundup
Issued by NWS Springfield, MO

Home | Current Version | Previous Version | Text Only | Print | Product List | Glossary On
Versions: 1 2 3 4 5 6 7 8 9 10 11 12 13 14 15 16 17 18 19 20 21 22 23 24 25 26 27 28 29 30 31 32 33 34 35 36 37 38 39 40 41 42 43 44 45 46 47 48 49 50
000
NZUS99 KSGF 021007
HRRSGF

HOURLY WEATHER
NATIONAL WEATHER SERVICE SPRINGFIELD MO
500 AM CDT THU APR 02 2015

......SGF CWA......

CITY           SKY/WX    TMP DP  RH WIND       PRES   REMARKS
SPRINGFIELD    PTCLDY    60  57  89 S17       29.71S
JOPLIN         PTCLDY    66  60  81 S20       29.68F
WEST PLAINS    CLOUDY    59  56  89 S10       29.81F
ROLLA          CLEAR     61  56  83 S17       29.70F
OSAGE BEACH    PTCLDY    61  55  82 S12       29.68F
BRANSON        PTCLDY    64  57  77 S10       29.77F

......SURROUNDING SGF CWA......

CITY           SKY/WX    TMP DP  RH WIND       PRES   REMARKS
CHANUTE        CLOUDY    68  61  78 SW21G31   29.59F
PARSONS        LGT RAIN  67  63  87 S20G28    29.65S
COFFEYVILLE    LGT RAIN  67  62  84 SW12G23   29.69R
EMPORIA        TSTM      58  54  86 N15       29.66R FOG
GROVE OK       PTCLDY    68  63  83 S21G26    29.72S
ROGERS AR      CLOUDY    65  60  84 S18G25    29.77S
SILOAM SPRINGS MOCLDY    63  55  77 S16G22    29.78F
HARRISON AR    PTCLDY    61  58  90 SE8         N/A
NEAR YELLVILLE CLEAR     61  55  82 SE3       29.79S

......KANSAS AND MISSOURI......

CITY           SKY/WX    TMP DP  RH WIND       PRES   REMARKS
KANSAS CTY INT LGT RAIN  57  54  89 NE16      29.70S
DOWNTOWN KC    TSTM      59  55  87 N10       29.72R FOG
COLUMBIA       MOCLDY    61  56  83 S15G23    29.65F
ST JOSEPH      RAIN      56  54  93 N9        29.73R FOG
ST LOUIS       PTCLDY    65  55  70 S13       29.73F
SPIRIT OF STL  PTCLDY    64  55  72 S12G23    29.71F
KIRKSVILLE     CLOUDY    59  57  93 NW12      29.68R
WICHITA        MOCLDY    60  53  77 N18G29    29.71R
TOPEKA         TSTM      57  55  93 NE15      29.68F
OLATHE         TSTM      58  56  93 N21G31    29.68R FOG

......TENNESSEE......

CITY           SKY/WX    TMP DP  RH WIND       PRES   REMARKS
MEMPHIS        CLOUDY    70  60  70 SW10      29.94R
NASHVILLE      MOCLDY    65  53  65 S10       29.97S

......ARKANSAS.......

CITY           SKY/WX    TMP DP  RH WIND       PRES   REMARKS
FAYETTEVILLE   PTCLDY    64  60  87 S22       29.79R
FT SMITH       CLOUDY    61  57  87 VRB3      29.80S
LITTLE ROCK    PTCLDY    66  61  84 S12       29.88S

......OKLAHOMA.......

CITY           SKY/WX    TMP DP  RH WIND       PRES   REMARKS
TULSA          TSTM      68  64  87 S20G26    29.69F
PONCA CITY     CLEAR     67  60  78 S6        29.66R
MCALESTER      MOCLDY    67  62  84 S12G24    29.76F
OKLAHOMA CITY  PTCLDY    67  59  75 S22G29    29.68S

......IOWA............

CITY           SKY/WX    TMP DP  RH WIND       PRES   REMARKS
DES MOINES     LGT RAIN  55  49  80 NE12      29.70F
QUAD CITIES    CLOUDY    58  52  80 SW13      29.65R

......ILLINOIS........

CITY           SKY/WX    TMP DP  RH WIND       PRES   REMARKS
QUINCY         CLOUDY    60  55  83 S14       29.67R
CHICAGO        CLOUDY    57  35  43 S15G23    29.72F



USA.gov is the U.S. government's official web portal to all federal, state and local government web resources and services.